Overview Statistics Trail Chart Weather Telemetry Raw packets
 

This is the latest recevied weather packets stored in our database for station/object K4WCH. If no packets are shown the sender has not sent any weather packets the latest 10 day(s).

<< 1 2 3 4 5 6 7 >>
Time Temp. Humidity Pressure Rain* Wind** Luminosity Snow
1788649319 27.22° C 83% 1013 hPa 0 mm - 26 W/m² -
1788649019 27.22° C 84% 1013 hPa 0 mm - 29 W/m² -
1788648714 27.22° C 85% 1013.2 hPa 0 mm - 33 W/m² -
1788648414 27.22° C 84% 1013.1 hPa 0 mm - 36 W/m² -
1788648114 27.22° C 83% 1013.1 hPa 0 mm - 40 W/m² -
1788647811 27.22° C 82% 1013.1 hPa 0 mm - 43 W/m² -
1788647507 27.22° C 80% 1013.3 hPa 0 mm - 46 W/m² -
1788647202 27.22° C 79% 1012.9 hPa 0 mm - 49 W/m² -
1788646897 27.22° C 79% 1013 hPa 0 mm - 51 W/m² -
1788646593 27.22° C 79% 1013.1 hPa 0 mm - 52 W/m² -
1788646289 27.22° C 77% 1013.1 hPa 0 mm - 55 W/m² -
1788645985 27.22° C 76% 1013.2 hPa 0 mm - 61 W/m² -
1788645681 27.22° C 76% 1013 hPa 0 mm - 68 W/m² -
1788645380 27.22° C 77% 1012.8 hPa 0 mm - 75 W/m² -
1788645076 27.22° C 76% 1012.6 hPa 0 mm - 80 W/m² -
1788644772 27.22° C 75% 1012.9 hPa 0 mm - 86 W/m² -
1788644472 27.22° C 76% 1012.9 hPa 0 mm - 91 W/m² -
1788644167 27.22° C 75% 1012.7 hPa 0 mm - 96 W/m² -
1788643863 27.22° C 74% 1012.8 hPa 0 mm - 102 W/m² -
1788643563 26.67° C 74% 1013 hPa 0 mm - 101 W/m² -
1788643262 27.22° C 75% 1013.2 hPa 0 mm - 96 W/m² -
1788642958 27.22° C 76% 1013.3 hPa 0 mm - 89 W/m² -
1788642653 26.67° C 79% 1013.3 hPa 0 mm - 78 W/m² -
1788642349 27.22° C 77% 1013.2 hPa 0 mm - 67 W/m² -
1788642044 30.56° C 73% 1013.2 hPa 0 mm - 57 W/m² -

* Rain latest hour (hover to see other rain measurements)
** Current wind speed in m/s (hover to see current wind gust speed)